Time,TemperatureF,DewpointF,PressureIn,WindDirection,WindDirectionDegrees,WindSpeedMPH,WindSpeedGustMPH,Humidity,HourlyPrecipIn,Conditions,Clouds,dailyrainin,SolarRadiationWatts/m^2,SoftwareType,DateUTC
2013-07-20 00:00:00,60.6,54.7,29.88,SSW,194,0.0,0.0,81,0.00,,,0.00,0,Wunderground v.1.15,2013-07-20 07:00:00,
2013-07-20 00:05:00,60.6,55.4,29.87,SSW,194,1.0,1.0,83,0.00,,,0.00,0,Wunderground v.1.15,2013-07-20 07:05:00,
2013-07-20 00:10:00,60.6,55.4,29.87,SSW,194,1.0,1.0,83,0.00,,,0.00,0,Wunderground v.1.15,2013-07-20 07:10:00,
2013-07-20 00:20:00,60.4,54.5,29.87,South,191,0.0,0.0,81,0.00,,,0.00,0,Wunderground v.1.15,2013-07-20 07:20:00,
2013-07-20 00:29:00,60.0,55.5,29.87,South,191,0.0,0.0,85,0.00,,,0.00,0,Wunderground v.1.15,2013-07-20 07:29:00,
2013-07-20 00:35:00,59.8,53.3,29.87,South,191,2.0,2.0,79,0.00,,,0.00,0,Wunderground v.1.15,2013-07-20 07:35:00,
2013-07-20 00:40:00,59.5,53.0,29.87,South,191,0.0,0.0,79,0.00,,,0.00,0,Wunderground v.1.15,2013-07-20 07:40:00,
2013-07-20 00:49:00,59.2,52.0,29.87,SSW,196,1.0,1.0,77,0.00,,,0.00,0,Wunderground v.1.15,2013-07-20 07:49:00,
2013-07-20 00:59:00,58.7,52.2,29.86,South,189,1.0,1.0,79,0.00,,,0.00,0,Wunderground v.1.15,2013-07-20 07:59:00,
2013-07-20 01:05:00,58.4,52.9,29.86,SSW,196,2.0,2.0,82,0.00,,,0.00,0,Wunderground v.1.15,2013-07-20 08:05:00,
2013-07-20 01:10:00,58.3,53.8,29.86,South,186,2.0,2.0,85,0.00,,,0.00,0,Wunderground v.1.15,2013-07-20 08:10:00,
2013-07-20 01:20:00,58.0,55.1,29.86,South,183,1.0,1.0,90,0.00,,,0.00,0,Wunderground v.1.15,2013-07-20 08:20:00,
2013-07-20 01:30:00,57.7,54.2,29.86,South,183,0.0,0.0,88,0.00,,,0.00,0,Wunderground v.1.15,2013-07-20 08:30:00,
2013-07-20 01:40:00,57.5,54.3,29.86,South,183,0.0,0.0,89,0.00,,,0.00,0,Wunderground v.1.15,2013-07-20 08:40:00,
2013-07-20 01:49:00,57.4,54.2,29.86,South,183,0.0,0.0,89,0.00,,,0.00,0,Wunderground v.1.15,2013-07-20 08:49:00,
2013-07-20 01:59:00,57.2,54.0,29.86,South,183,2.0,2.0,89,0.00,,,0.00,0,Wunderground v.1.15,2013-07-20 08:59:00,
2013-07-20 02:05:00,57.1,53.9,29.86,South,183,2.0,2.0,89,0.00,,,0.00,0,Wunderground v.1.15,2013-07-20 09:05:00,
2013-07-20 02:10:00,57.0,53.5,29.86,South,183,1.0,1.0,88,0.00,,,0.00,0,Wunderground v.1.15,2013-07-20 09:10:00,
2013-07-20 02:19:00,56.7,49.2,29.86,South,183,0.0,0.0,76,0.00,,,0.00,0,Wunderground v.1.15,2013-07-20 09:19:00,
2013-07-20 02:29:00,56.4,49.3,29.86,South,183,0.0,0.0,77,0.00,,,0.00,0,Wunderground v.1.15,2013-07-20 09:29:00,
2013-07-20 02:35:00,56.3,53.1,29.86,SSW,193,1.0,1.0,89,0.00,,,0.00,0,Wunderground v.1.15,2013-07-20 09:35:00,
2013-07-20 02:40:00,56.2,51.4,29.86,SSW,193,0.0,0.0,84,0.00,,,0.00,0,Wunderground v.1.15,2013-07-20 09:40:00,
2013-07-20 02:49:00,55.9,49.1,29.86,SSW,201,0.0,0.0,78,0.00,,,0.00,0,Wunderground v.1.15,2013-07-20 09:49:00,
2013-07-20 02:59:00,55.7,47.2,29.86,SSW,200,0.0,0.0,73,0.00,,,0.00,0,Wunderground v.1.15,2013-07-20 09:59:00,
2013-07-20 03:05:00,55.6,46.0,29.86,SSW,198,1.0,1.0,70,0.00,,,0.00,0,Wunderground v.1.15,2013-07-20 10:05:00,
2013-07-20 03:10:00,55.6,45.2,29.86,SSW,201,2.0,2.0,68,0.00,,,0.00,0,Wunderground v.1.15,2013-07-20 10:10:00,
2013-07-20 03:20:00,55.4,45.0,29.85,SSW,201,0.0,0.0,68,0.00,,,0.00,0,Wunderground v.1.15,2013-07-20 10:20:00,
2013-07-20 03:29:00,55.4,45.0,29.85,SSW,201,0.0,0.0,68,0.00,,,0.00,0,Wunderground v.1.15,2013-07-20 10:29:00,
2013-07-20 03:35:00,55.4,45.0,29.85,SSW,201,1.0,1.0,68,0.00,,,0.00,0,Wunderground v.1.15,2013-07-20 10:35:00,
2013-07-20 03:40:00,55.4,45.4,29.85,SSW,201,0.0,0.0,69,0.00,,,0.00,0,Wunderground v.1.15,2013-07-20 10:40:00,
2013-07-20 03:50:00,55.3,46.1,29.85,SSW,201,0.0,0.0,71,0.00,,,0.00,0,Wunderground v.1.15,2013-07-20 10:50:00,
2013-07-20 03:59:00,55.3,49.2,29.85,SSW,201,0.0,0.0,80,0.00,,,0.00,0,Wunderground v.1.15,2013-07-20 10:59:00,
2013-07-20 04:09:00,55.2,47.4,29.85,SSW,201,1.0,1.0,75,0.00,,,0.00,0,Wunderground v.1.15,2013-07-20 11:09:00,
2013-07-20 04:15:00,55.3,46.8,29.85,SSW,201,1.0,1.0,73,0.00,,,0.00,0,Wunderground v.1.15,2013-07-20 11:15:00,
2013-07-20 04:24:00,55.5,48.1,29.85,South,189,3.0,3.0,76,0.00,,,0.00,0,Wunderground v.1.15,2013-07-20 11:24:00,
2013-07-20 04:29:00,55.6,47.8,29.85,SSW,194,0.0,0.0,75,0.00,,,0.00,0,Wunderground v.1.15,2013-07-20 11:29:00,
2013-07-20 04:35:00,55.7,48.6,29.85,SSW,193,2.0,2.0,77,0.00,,,0.00,0,Wunderground v.1.15,2013-07-20 11:35:00,
2013-07-20 04:40:00,55.7,48.6,29.85,SSW,196,2.0,2.0,77,0.00,,,0.00,0,Wunderground v.1.15,2013-07-20 11:40:00,
2013-07-20 04:50:00,55.8,48.3,29.85,SSW,198,2.0,2.0,76,0.00,,,0.00,0,Wunderground v.1.15,2013-07-20 11:50:00,
2013-07-20 04:59:00,55.9,48.8,29.85,South,191,2.0,2.0,77,0.00,,,0.00,0,Wunderground v.1.15,2013-07-20 11:59:00,
2013-07-20 05:04:00,55.9,48.8,29.84,SSW,213,0.0,2.0,77,0.00,,,0.00,0,Wunderground v.1.15,2013-07-20 12:04:00,
2013-07-20 05:09:00,55.9,48.8,29.85,SSW,209,1.0,1.0,77,0.00,,,0.00,0,Wunderground v.1.15,2013-07-20 12:09:00,
2013-07-20 05:15:00,55.8,48.3,29.85,SSW,199,1.0,1.0,76,0.00,,,0.00,0,Wunderground v.1.15,2013-07-20 12:15:00,
2013-07-20 05:20:00,55.8,48.3,29.85,WSW,251,0.0,0.0,76,0.00,,,0.00,0,Wunderground v.1.15,2013-07-20 12:20:00,
2013-07-20 05:29:00,55.8,48.3,29.84,South,187,0.0,0.0,76,0.00,,,0.00,0,Wunderground v.1.15,2013-07-20 12:29:00,
2013-07-20 05:35:00,55.8,48.0,29.84,SSW,195,0.0,0.0,75,0.00,,,0.00,0,Wunderground v.1.15,2013-07-20 12:35:00,
2013-07-20 05:40:00,55.8,48.0,29.85,South,191,3.0,3.0,75,0.00,,,0.00,0,Wunderground v.1.15,2013-07-20 12:40:00,
2013-07-20 05:49:00,55.7,47.9,29.85,South,185,0.0,0.0,75,0.00,,,0.00,0,Wunderground v.1.15,2013-07-20 12:49:00,
2013-07-20 05:59:00,55.7,47.9,29.85,SSW,203,2.0,2.0,75,0.00,,,0.00,0,Wunderground v.1.15,2013-07-20 12:59:00,
2013-07-20 06:05:00,55.6,48.2,29.85,SSW,203,0.0,2.0,76,0.00,,,0.00,0,Wunderground v.1.15,2013-07-20 13:05:00,
2013-07-20 06:14:00,55.7,47.9,29.84,SSW,198,1.0,1.0,75,0.00,,,0.00,0,Wunderground v.1.15,2013-07-20 13:14:00,
2013-07-20 06:19:00,55.7,48.2,29.85,SSW,194,0.0,0.0,76,0.00,,,0.00,0,Wunderground v.1.15,2013-07-20 13:19:00,
2013-07-20 06:25:00,55.6,47.8,29.85,SSW,192,3.0,3.0,75,0.00,,,0.00,0,Wunderground v.1.15,2013-07-20 13:25:00,
2013-07-20 06:35:00,55.7,48.2,29.85,SSW,203,0.0,0.0,76,0.00,,,0.00,0,Wunderground v.1.15,2013-07-20 13:35:00,
2013-07-20 06:40:00,55.7,48.2,29.85,South,186,0.0,0.0,76,0.00,,,0.00,0,Wunderground v.1.15,2013-07-20 13:40:00,
2013-07-20 06:49:00,55.7,48.2,29.85,SSW,194,0.0,0.0,76,0.00,,,0.00,0,Wunderground v.1.15,2013-07-20 13:49:00,
2013-07-20 06:59:00,55.7,48.2,29.85,SSW,195,0.0,0.0,76,0.00,,,0.00,0,Wunderground v.1.15,2013-07-20 13:59:00,
2013-07-20 07:05:00,55.8,48.3,29.85,South,189,0.0,0.0,76,0.00,,,0.00,0,Wunderground v.1.15,2013-07-20 14:05:00,
2013-07-20 07:10:00,55.8,48.3,29.85,SSW,207,0.0,0.0,76,0.00,,,0.00,0,Wunderground v.1.15,2013-07-20 14:10:00,
2013-07-20 07:19:00,56.0,48.5,29.85,SW,234,0.0,0.0,76,0.00,,,0.00,0,Wunderground v.1.15,2013-07-20 14:19:00,
2013-07-20 07:29:00,56.1,48.6,29.85,SSW,199,0.0,0.0,76,0.00,,,0.00,0,Wunderground v.1.15,2013-07-20 14:29:00,
2013-07-20 07:35:00,56.2,48.7,29.85,SSW,196,1.0,1.0,76,0.00,,,0.00,0,Wunderground v.1.15,2013-07-20 14:35:00,
2013-07-20 07:40:00,56.2,48.7,29.85,South,185,0.0,0.0,76,0.00,,,0.00,0,Wunderground v.1.15,2013-07-20 14:40:00,
2013-07-20 07:49:00,56.4,48.9,29.85,SSW,198,1.0,1.0,76,0.00,,,0.00,0,Wunderground v.1.15,2013-07-20 14:49:00,
2013-07-20 08:00:00,56.6,49.1,29.85,SW,225,0.0,0.0,76,0.00,,,0.00,0,Wunderground v.1.15,2013-07-20 15:00:00,
2013-07-20 08:10:00,57.0,49.5,29.85,WSW,256,0.0,0.0,76,0.00,,,0.00,0,Wunderground v.1.15,2013-07-20 15:10:00,
2013-07-20 08:19:00,57.3,49.4,29.86,West,281,0.0,0.0,75,0.00,,,0.00,0,Wunderground v.1.15,2013-07-20 15:19:00,
2013-07-20 08:25:00,57.5,49.6,29.85,SW,221,0.0,0.0,75,0.00,,,0.00,0,Wunderground v.1.15,2013-07-20 15:25:00,
2013-07-20 08:30:00,57.7,49.8,29.86,South,186,0.0,0.0,75,0.00,,,0.00,0,Wunderground v.1.15,2013-07-20 15:30:00,
2013-07-20 08:39:00,58.4,50.5,29.85,West,267,1.0,1.0,75,0.00,,,0.00,0,Wunderground v.1.15,2013-07-20 15:39:00,
2013-07-20 08:49:00,58.9,50.6,29.85,South,189,5.0,5.0,74,0.00,,,0.00,0,Wunderground v.1.15,2013-07-20 15:49:00,
2013-07-20 08:55:00,59.2,50.9,29.85,South,187,0.0,5.0,74,0.00,,,0.00,0,Wunderground v.1.15,2013-07-20 15:55:00,
2013-07-20 09:00:00,59.8,51.1,29.85,West,281,0.0,0.0,73,0.00,,,0.00,0,Wunderground v.1.15,2013-07-20 16:00:00,
2013-07-20 09:09:00,60.6,51.5,29.85,SSW,207,2.0,2.0,72,0.00,,,0.00,0,Wunderground v.1.15,2013-07-20 16:09:00,
2013-07-20 09:15:00,61.1,51.6,29.85,SSW,199,0.0,2.0,71,0.00,,,0.00,0,Wunderground v.1.15,2013-07-20 16:15:00,
2013-07-20 09:20:00,61.6,51.7,29.85,SSW,195,1.0,1.0,70,0.00,,,0.00,0,Wunderground v.1.15,2013-07-20 16:20:00,
2013-07-20 09:30:00,62.4,52.1,29.85,SSW,199,0.0,0.0,69,0.00,,,0.00,0,Wunderground v.1.15,2013-07-20 16:30:00,
2013-07-20 09:39:00,63.8,52.2,29.85,SSW,213,2.0,2.0,66,0.00,,,0.00,0,Wunderground v.1.15,2013-07-20 16:39:00,
2013-07-20 09:45:00,64.1,51.7,29.84,South,184,1.0,2.0,64,0.00,,,0.00,0,Wunderground v.1.15,2013-07-20 16:45:00,
2013-07-20 09:54:00,65.2,52.3,29.85,South,184,4.0,4.0,63,0.00,,,0.00,0,Wunderground v.1.15,2013-07-20 16:54:00,
2013-07-20 09:59:00,65.8,52.9,29.84,SSW,207,1.0,1.0,63,0.00,,,0.00,0,Wunderground v.1.15,2013-07-20 16:59:00,
2013-07-20 10:09:00,67.7,53.3,29.84,South,186,1.0,1.0,60,0.00,,,0.00,0,Wunderground v.1.15,2013-07-20 17:09:00,
2013-07-20 10:15:00,68.0,53.6,29.84,SSW,204,0.0,1.0,60,0.00,,,0.00,0,Wunderground v.1.15,2013-07-20 17:15:00,
2013-07-20 10:20:00,68.2,54.2,29.84,South,187,0.0,0.0,61,0.00,,,0.00,0,Wunderground v.1.15,2013-07-20 17:20:00,
2013-07-20 10:30:00,69.0,60.0,29.84,SSW,197,1.0,1.0,73,0.00,,,0.00,0,Wunderground v.1.15,2013-07-20 17:30:00,
2013-07-20 10:39:00,69.8,62.6,29.84,South,190,2.0,2.0,78,0.00,,,0.00,0,Wunderground v.1.15,2013-07-20 17:39:00,
2013-07-20 10:45:00,70.4,62.8,29.84,SSW,193,4.0,4.0,77,0.00,,,0.00,0,Wunderground v.1.15,2013-07-20 17:45:00,
2013-07-20 10:50:00,70.5,63.3,29.84,South,189,1.0,1.0,78,0.00,,,0.00,0,Wunderground v.1.15,2013-07-20 17:50:00,
2013-07-20 10:59:00,71.7,64.5,29.83,SW,224,0.0,0.0,78,0.00,,,0.00,0,Wunderground v.1.15,2013-07-20 17:59:00,
2013-07-20 11:05:00,72.5,64.5,29.83,SW,235,3.0,3.0,76,0.00,,,0.00,0,Wunderground v.1.15,2013-07-20 18:05:00,
2013-07-20 11:10:00,72.9,64.9,29.83,SSW,198,1.0,1.0,76,0.00,,,0.00,0,Wunderground v.1.15,2013-07-20 18:10:00,
2013-07-20 11:20:00,74.3,65.5,29.83,South,187,2.0,2.0,74,0.00,,,0.00,0,Wunderground v.1.15,2013-07-20 18:20:00,
2013-07-20 11:25:00,74.2,65.4,29.83,SSW,203,1.0,1.0,74,0.00,,,0.00,0,Wunderground v.1.15,2013-07-20 18:25:00,
2013-07-20 11:35:00,75.2,65.6,29.83,SSW,193,2.0,2.0,72,0.00,,,0.00,0,Wunderground v.1.15,2013-07-20 18:35:00,
2013-07-20 11:40:00,75.4,64.9,29.83,SSW,207,5.0,5.0,70,0.00,,,0.00,0,Wunderground v.1.15,2013-07-20 18:40:00,
2013-07-20 12:05:00,77.4,65.6,29.82,SSW,193,2.0,3.0,67,0.00,,,0.00,0,Wunderground v.1.15,2013-07-20 19:05:00,
2013-07-20 12:15:00,79.4,66.2,29.82,West,264,0.0,2.0,64,0.00,,,0.00,0,Wunderground v.1.15,2013-07-20 19:15:00,
2013-07-20 12:20:00,80.2,61.5,29.82,West,267,0.0,0.0,53,0.00,,,0.00,0,Wunderground v.1.15,2013-07-20 19:20:00,
2013-07-20 12:35:00,81.9,65.7,29.81,West,275,1.0,1.0,58,0.00,,,0.00,0,Wunderground v.1.15,2013-07-20 19:35:00,
2013-07-20 12:40:00,82.1,66.4,29.81,SSE,159,2.0,2.0,59,0.00,,,0.00,0,Wunderground v.1.15,2013-07-20 19:40:00,
2013-07-20 12:45:00,82.7,66.9,29.81,NW,323,0.0,0.0,59,0.00,,,0.00,0,Wunderground v.1.15,2013-07-20 19:45:00,
2013-07-20 12:54:00,83.5,67.7,29.81,SSW,195,2.0,2.0,59,0.00,,,0.00,0,Wunderground v.1.15,2013-07-20 19:54:00,
2013-07-20 12:59:00,83.7,67.8,29.81,SSW,208,3.0,3.0,59,0.00,,,0.00,0,Wunderground v.1.15,2013-07-20 19:59:00,
2013-07-20 13:10:00,84.3,68.4,29.80,SSW,211,1.0,1.0,59,0.00,,,0.00,0,Wunderground v.1.15,2013-07-20 20:10:00,
2013-07-20 13:15:00,83.9,67.5,29.80,SSW,195,5.0,5.0,58,0.00,,,0.00,0,Wunderground v.1.15,2013-07-20 20:15:00,
2013-07-20 13:20:00,83.8,67.9,29.80,SSW,207,1.0,1.0,59,0.00,,,0.00,0,Wunderground v.1.15,2013-07-20 20:20:00,
2013-07-20 13:25:00,83.6,67.8,29.80,SSW,199,1.0,1.0,59,0.00,,,0.00,0,Wunderground v.1.15,2013-07-20 20:25:00,
2013-07-20 13:35:00,83.5,67.2,29.80,SSW,203,4.0,4.0,58,0.00,,,0.00,0,Wunderground v.1.15,2013-07-20 20:35:00,
2013-07-20 13:40:00,83.7,67.4,29.80,SW,225,1.0,1.0,58,0.00,,,0.00,0,Wunderground v.1.15,2013-07-20 20:40:00,
2013-07-20 13:50:00,84.5,67.6,29.80,SSW,197,5.0,5.0,57,0.00,,,0.00,0,Wunderground v.1.15,2013-07-20 20:50:00,
2013-07-20 13:59:00,85.5,68.5,29.80,SSW,198,6.0,6.0,57,0.00,,,0.00,0,Wunderground v.1.15,2013-07-20 20:59:00,
2013-07-20 14:10:00,86.8,69.2,29.79,SSW,211,0.0,0.0,56,0.00,,,0.00,0,Wunderground v.1.15,2013-07-20 21:10:00,
2013-07-20 14:19:00,87.5,68.8,29.79,SSW,202,4.0,4.0,54,0.00,,,0.00,0,Wunderground v.1.15,2013-07-20 21:19:00,
2013-07-20 14:25:00,87.5,69.3,29.79,SSW,206,0.0,4.0,55,0.00,,,0.00,0,Wunderground v.1.15,2013-07-20 21:25:00,
2013-07-20 14:35:00,87.4,68.2,29.79,SW,218,0.0,2.0,53,0.00,,,0.00,0,Wunderground v.1.15,2013-07-20 21:35:00,
2013-07-20 14:40:00,87.6,67.8,29.79,SW,216,3.0,3.0,52,0.00,,,0.00,0,Wunderground v.1.15,2013-07-20 21:40:00,
2013-07-20 14:45:00,87.5,68.3,29.78,SSW,210,1.0,3.0,53,0.00,,,0.00,0,Wunderground v.1.15,2013-07-20 21:45:00,
2013-07-20 14:50:00,88.0,68.2,29.79,South,188,2.0,2.0,52,0.00,,,0.00,0,Wunderground v.1.15,2013-07-20 21:50:00,
2013-07-20 15:00:00,88.4,68.0,29.79,SSW,198,3.0,3.0,51,0.00,,,0.00,0,Wunderground v.1.15,2013-07-20 22:00:00,
2013-07-20 15:05:00,88.2,67.8,29.78,SSW,199,2.0,3.0,51,0.00,,,0.00,0,Wunderground v.1.15,2013-07-20 22:05:00,
2013-07-20 15:10:00,88.0,68.2,29.78,SSW,198,1.0,1.0,52,0.00,,,0.00,0,Wunderground v.1.15,2013-07-20 22:10:00,
2013-07-20 15:20:00,88.7,67.7,29.78,SSW,206,3.0,3.0,50,0.00,,,0.00,0,Wunderground v.1.15,2013-07-20 22:20:00,
2013-07-20 15:25:00,88.6,67.0,29.78,SSW,197,5.0,5.0,49,0.00,,,0.00,0,Wunderground v.1.15,2013-07-20 22:25:00,
2013-07-20 15:30:00,88.8,67.2,29.77,SW,224,2.0,2.0,49,0.00,,,0.00,0,Wunderground v.1.15,2013-07-20 22:30:00,
2013-07-20 15:35:00,88.9,66.7,29.77,South,189,6.0,6.0,48,0.00,,,0.00,0,Wunderground v.1.15,2013-07-20 22:35:00,
2013-07-20 15:44:00,90.0,67.1,29.77,SW,222,3.0,3.0,47,0.00,,,0.00,0,Wunderground v.1.15,2013-07-20 22:44:00,
2013-07-20 15:50:00,89.7,67.4,29.77,South,178,4.0,4.0,48,0.00,,,0.00,0,Wunderground v.1.15,2013-07-20 22:50:00,
2013-07-20 16:05:00,90.8,64.5,29.76,WNW,284,3.0,3.0,42,0.00,,,0.00,0,Wunderground v.1.15,2013-07-20 23:05:00,
2013-07-20 16:10:00,91.3,66.3,29.76,SSW,194,0.0,0.0,44,0.00,,,0.00,0,Wunderground v.1.15,2013-07-20 23:10:00,
2013-07-20 16:15:00,91.6,66.6,29.76,SSW,198,0.0,0.0,44,0.00,,,0.00,0,Wunderground v.1.15,2013-07-20 23:15:00,
2013-07-20 16:30:00,91.2,64.2,29.75,SW,224,2.0,2.0,41,0.00,,,0.00,0,Wunderground v.1.15,2013-07-20 23:30:00,
2013-07-20 16:44:00,90.8,63.9,29.75,SSW,207,1.0,1.0,41,0.00,,,0.00,0,Wunderground v.1.15,2013-07-20 23:44:00,
2013-07-20 16:49:00,90.7,63.8,29.75,SSW,199,0.0,0.0,41,0.00,,,0.00,0,Wunderground v.1.15,2013-07-20 23:49:00,
2013-07-20 16:54:00,90.9,64.6,29.75,SSW,204,0.0,0.0,42,0.00,,,0.00,0,Wunderground v.1.15,2013-07-20 23:54:00,
2013-07-20 17:00:00,90.6,64.4,29.75,South,189,0.0,0.0,42,0.00,,,0.00,0,Wunderground v.1.15,2013-07-21 00:00:00,
2013-07-20 17:09:00,90.2,64.0,29.74,South,191,4.0,4.0,42,0.00,,,0.00,0,Wunderground v.1.15,2013-07-21 00:09:00,
2013-07-20 17:20:00,89.6,64.1,29.74,SW,219,0.0,0.0,43,0.00,,,0.00,0,Wunderground v.1.15,2013-07-21 00:20:00,
2013-07-20 17:25:00,89.9,64.4,29.74,SSW,193,3.0,3.0,43,0.00,,,0.00,0,Wunderground v.1.15,2013-07-21 00:25:00,
2013-07-20 17:35:00,89.3,63.9,29.74,SSW,210,1.0,1.0,43,0.00,,,0.00,0,Wunderground v.1.15,2013-07-21 00:35:00,
2013-07-20 17:40:00,88.8,64.1,29.74,SSW,204,2.0,2.0,44,0.00,,,0.00,0,Wunderground v.1.15,2013-07-21 00:40:00,
2013-07-20 17:45:00,88.5,64.4,29.74,SSW,208,1.0,2.0,45,0.00,,,0.00,0,Wunderground v.1.15,2013-07-21 00:45:00,
2013-07-20 17:50:00,88.5,64.4,29.74,South,190,2.0,2.0,45,0.00,,,0.00,0,Wunderground v.1.15,2013-07-21 00:50:00,
2013-07-20 17:59:00,88.1,64.7,29.74,SW,235,2.0,2.0,46,0.00,,,0.00,0,Wunderground v.1.15,2013-07-21 00:59:00,
2013-07-20 18:04:00,87.9,65.2,29.74,SSW,202,4.0,4.0,47,0.00,,,0.00,0,Wunderground v.1.15,2013-07-21 01:04:00,
2013-07-20 18:10:00,87.6,64.9,29.73,SSW,209,1.0,1.0,47,0.00,,,0.00,0,Wunderground v.1.15,2013-07-21 01:10:00,
2013-07-20 18:15:00,87.8,64.4,29.73,SW,229,1.0,1.0,46,0.00,,,0.00,0,Wunderground v.1.15,2013-07-21 01:15:00,
2013-07-20 18:24:00,87.9,64.5,29.74,West,261,1.0,1.0,46,0.00,,,0.00,0,Wunderground v.1.15,2013-07-21 01:24:00,
2013-07-20 18:30:00,87.7,64.4,29.74,West,278,1.0,1.0,46,0.00,,,0.00,0,Wunderground v.1.15,2013-07-21 01:30:00,
2013-07-20 18:45:00,87.3,64.6,29.74,NW,321,3.0,3.0,47,0.00,,,0.00,0,Wunderground v.1.15,2013-07-21 01:45:00,
2013-07-20 18:50:00,86.2,62.4,29.74,WNW,298,4.0,4.0,45,0.00,,,0.00,0,Wunderground v.1.15,2013-07-21 01:50:00,
2013-07-20 19:00:00,85.4,62.3,29.74,SSW,210,1.0,1.0,46,0.00,,,0.00,0,Wunderground v.1.15,2013-07-21 02:00:00,
2013-07-20 19:10:00,85.0,61.9,29.75,SSW,203,4.0,4.0,46,0.00,,,0.00,0,Wunderground v.1.15,2013-07-21 02:10:00,
2013-07-20 19:20:00,83.4,61.7,29.75,SSW,210,0.0,0.0,48,0.00,,,0.00,0,Wunderground v.1.15,2013-07-21 02:20:00,
2013-07-20 19:29:00,83.2,62.1,29.75,WSW,257,0.0,0.0,49,0.00,,,0.00,0,Wunderground v.1.15,2013-07-21 02:29:00,
2013-07-20 19:40:00,82.6,62.1,29.76,North,350,0.0,0.0,50,0.00,,,0.00,0,Wunderground v.1.15,2013-07-21 02:40:00,
2013-07-20 19:50:00,81.5,61.6,29.76,NNW,348,2.0,2.0,51,0.00,,,0.00,0,Wunderground v.1.15,2013-07-21 02:50:00,
2013-07-20 20:00:00,79.7,61.1,29.76,SSW,195,2.0,2.0,53,0.00,,,0.00,0,Wunderground v.1.15,2013-07-21 03:00:00,
2013-07-20 20:10:00,77.2,61.8,29.77,South,190,2.0,2.0,59,0.00,,,0.00,0,Wunderground v.1.15,2013-07-21 03:10:00,
2013-07-20 20:20:00,75.4,61.9,29.77,SSW,198,2.0,2.0,63,0.00,,,0.00,0,Wunderground v.1.15,2013-07-21 03:20:00,
2013-07-20 20:30:00,73.0,61.4,29.77,SSW,192,5.0,5.0,67,0.00,,,0.00,0,Wunderground v.1.15,2013-07-21 03:30:00,
2013-07-20 20:40:00,71.6,61.7,29.77,South,178,2.0,2.0,71,0.00,,,0.00,0,Wunderground v.1.15,2013-07-21 03:40:00,
2013-07-20 20:49:00,70.1,60.7,29.78,SSW,204,3.0,3.0,72,0.00,,,0.00,0,Wunderground v.1.15,2013-07-21 03:49:00,
2013-07-20 20:55:00,69.5,60.1,29.78,SSW,193,3.0,3.0,72,0.00,,,0.00,0,Wunderground v.1.15,2013-07-21 03:55:00,
2013-07-20 21:00:00,69.1,59.3,29.78,SSW,194,2.0,2.0,71,0.00,,,0.00,0,Wunderground v.1.15,2013-07-21 04:00:00,
2013-07-20 21:04:00,68.6,60.4,29.78,SSE,165,3.0,3.0,75,0.00,,,0.00,0,Wunderground v.1.15,2013-07-21 04:04:00,
2013-07-20 21:09:00,68.0,56.6,29.78,SSW,205,1.0,1.0,67,0.00,,,0.00,0,Wunderground v.1.15,2013-07-21 04:09:00,
2013-07-20 21:15:00,67.6,59.0,29.79,South,189,4.0,4.0,74,0.00,,,0.00,0,Wunderground v.1.15,2013-07-21 04:15:00,
2013-07-20 21:20:00,66.9,60.2,29.79,South,172,2.0,2.0,79,0.00,,,0.00,0,Wunderground v.1.15,2013-07-21 04:20:00,
2013-07-20 21:29:00,66.2,56.9,29.80,South,191,3.0,3.0,72,0.00,,,0.00,0,Wunderground v.1.15,2013-07-21 04:29:00,
2013-07-20 21:39:00,65.9,58.5,29.79,SSW,199,4.0,4.0,77,0.00,,,0.00,0,Wunderground v.1.15,2013-07-21 04:39:00,
2013-07-20 21:45:00,65.5,57.7,29.79,SSW,196,2.0,4.0,76,0.00,,,0.00,0,Wunderground v.1.15,2013-07-21 04:45:00,
2013-07-20 21:50:00,65.4,57.6,29.80,South,181,5.0,5.0,76,0.00,,,0.00,0,Wunderground v.1.15,2013-07-21 04:50:00,
2013-07-20 21:59:00,64.7,57.7,29.80,South,181,2.0,2.0,78,0.00,,,0.00,0,Wunderground v.1.15,2013-07-21 04:59:00,
2013-07-20 22:05:00,64.3,58.3,29.80,SSW,198,5.0,5.0,81,0.00,,,0.00,0,Wunderground v.1.15,2013-07-21 05:05:00,
2013-07-20 22:10:00,64.0,56.3,29.80,South,176,2.0,2.0,76,0.00,,,0.00,0,Wunderground v.1.15,2013-07-21 05:10:00,
2013-07-20 22:19:00,63.4,57.8,29.80,South,184,3.0,3.0,82,0.00,,,0.00,0,Wunderground v.1.15,2013-07-21 05:19:00,
2013-07-20 22:29:00,63.1,57.2,29.80,SSW,193,5.0,5.0,81,0.00,,,0.00,0,Wunderground v.1.15,2013-07-21 05:29:00,
2013-07-20 22:35:00,62.9,55.2,29.80,South,190,4.0,5.0,76,0.00,,,0.00,0,Wunderground v.1.15,2013-07-21 05:35:00,
2013-07-20 22:40:00,62.7,57.1,29.80,South,177,3.0,3.0,82,0.00,,,0.00,0,Wunderground v.1.15,2013-07-21 05:40:00,
2013-07-20 22:49:00,62.3,57.4,29.81,South,176,7.0,7.0,84,0.00,,,0.00,0,Wunderground v.1.15,2013-07-21 05:49:00,
2013-07-20 22:55:00,62.0,57.8,29.80,SSW,194,5.0,7.0,86,0.00,,,0.00,0,Wunderground v.1.15,2013-07-21 05:55:00,
2013-07-20 23:00:00,61.8,55.9,29.80,SSW,196,3.0,3.0,81,0.00,,,0.00,0,Wunderground v.1.15,2013-07-21 06:00:00,
2013-07-20 23:04:00,61.5,55.3,29.80,SSW,198,3.0,3.0,80,0.00,,,0.00,0,Wunderground v.1.15,2013-07-21 06:04:00,
2013-07-20 23:09:00,61.2,55.3,29.80,SSW,209,3.0,3.0,81,0.00,,,0.00,0,Wunderground v.1.15,2013-07-21 06:09:00,
2013-07-20 23:19:00,61.0,53.7,29.80,South,189,3.0,3.0,77,0.00,,,0.00,0,Wunderground v.1.15,2013-07-21 06:19:00,
2013-07-20 23:25:00,60.9,52.6,29.80,SSW,199,4.0,4.0,74,0.00,,,0.00,0,Wunderground v.1.15,2013-07-21 06:25:00,
2013-07-20 23:30:00,60.8,50.6,29.80,SSW,213,2.0,2.0,69,0.00,,,0.00,0,Wunderground v.1.15,2013-07-21 06:30:00,
2013-07-20 23:39:00,60.4,52.8,29.81,South,176,4.0,4.0,76,0.00,,,0.00,0,Wunderground v.1.15,2013-07-21 06:39:00,
2013-07-20 23:45:00,60.3,54.1,29.80,SSW,210,3.0,4.0,80,0.00,,,0.00,0,Wunderground v.1.15,2013-07-21 06:45:00,
2013-07-20 23:54:00,60.3,54.4,29.81,SSW,199,6.0,6.0,81,0.00,,,0.00,0,Wunderground v.1.15,2013-07-21 06:54:00,
2013-07-20 23:59:00,60.3,54.1,29.80,SSW,193,3.0,3.0,80,0.00,,,0.00,0,Wunderground v.1.15,2013-07-21 06:59:00,